Port Isabel, TX

10:12 AM CST on February 09, 2016 (GMT -0600)
South Padre Island

Weather History for KSPL - April, 2014

Change the Weather History Date:

Saturday, April 19, 2014

  Actual Average (KBRO) Record (KBRO)
Temperature  
Mean Temperature 72 °F 75 °F  
Max Temperature 77 °F 84 °F 95 °F (1884)
Min Temperature 66 °F 67 °F 51 °F (1940)
Degree Days  
Heating Degree Days 0 0  
Month to date heating degree days 6  
Since 1 July heating degree days 552  
Cooling Degree Days 6 11  
Month to date cooling degree days 174  
Year to date cooling degree days 489  
Growing Degree Days 22 (Base 50)    
Moisture  
Dew Point 65 °F    
Average Humidity 84    
Maximum Humidity 94    
Minimum Humidity 69    
Precipitation  
Precipitation 0.00 in 0.07 in 0.99 in (1935)
Month to date precipitation 1.01  
Year to date precipitation 4.59  
Sea Level Pressure  
Sea Level Pressure 30.10 in    
Wind  
Wind Speed 0 mph (North)    
Max Wind Speed 0 mph    
Max Gust Speed -    
T = Trace of Precipitation, MM = Missing Value Source: NWS Daily Summary

Daily Weather History Graph

Daily Weather History Graph

Search for Another Location

Airport or City:

Trip Planner

Search our weather history database for the weather conditions in past years. The results will help you decide how hot, cold, wet, or windy it might be!

Date:

Astronomy

Apr. 19, 2014 Rise Set
Actual Time 7:01 AM CDT 7:54 PM CDT
Civil Twilight 6:37 AM CDT 8:17 PM CDT
Nautical Twilight 6:09 AM CDT 8:45 PM CDT
Astronomical Twilight 5:41 AM CDT 9:14 PM CDT
Moon No Moon Rise 10:34 AM CDT (4/19)
Length of Visible Light 13h 40m
Length of Day
12h 52m
Waning Gibbous, 78% of the Moon is Illuminated
Apr 19
Waning Gibbous
Apr 22
Last Quarter
Apr 29
New
May 6
First Quarter
May 14
Full

Hourly Weather History & Observations

Time (CDT) Temp. Dew Point Humidity Pressure Visibility Wind Dir Wind Speed Gust Speed Precip Events Conditions
12:15 AM 66.2 °F 62.6 °F 88% 30.13 in - Calm Calm - N/A Rain Light Rain
12:35 AM 66.2 °F 62.6 °F 88% 30.13 in - Calm Calm - N/A Rain Light Rain
12:55 AM 66.2 °F 62.6 °F 88% 30.12 in - Calm Calm - N/A Rain Light Rain
1:15 AM 66.2 °F 62.6 °F 88% 30.12 in - Calm Calm - N/A Rain Light Rain
1:35 AM 66.2 °F 62.6 °F 88% 30.11 in - Calm Calm - N/A Rain Light Rain
1:55 AM 66.2 °F 62.6 °F 88% 30.10 in - Calm Calm - N/A Rain Light Rain
2:15 AM 66.2 °F 62.6 °F 88% 30.09 in - Calm Calm - N/A Rain Light Rain
2:35 AM 66.2 °F 62.6 °F 88% 30.08 in - Calm Calm - N/A Rain Light Rain
2:55 AM 66.2 °F 64.4 °F 94% 30.08 in - Calm Calm - N/A Rain Light Rain
3:15 AM 66.2 °F 64.4 °F 94% 30.08 in - Calm Calm - N/A Rain Light Rain
3:35 AM 66.2 °F 64.4 °F 94% 30.08 in - Calm Calm - N/A Rain Light Rain
3:55 AM 66.2 °F 64.4 °F 94% 30.08 in - Calm Calm - N/A Rain Light Rain
4:15 AM 66.2 °F 64.4 °F 94% 30.07 in - Calm Calm - N/A Rain Light Rain
4:35 AM 66.2 °F 64.4 °F 94% 30.07 in - Calm Calm - N/A Rain Light Rain
4:55 AM 66.2 °F 64.4 °F 94% 30.07 in - North - - N/A Rain Light Rain
5:15 AM 66.2 °F 64.4 °F 94% 30.07 in - North - - N/A Rain Light Rain
5:35 AM 66.2 °F 64.4 °F 94% 30.08 in - North - - N/A Rain Light Rain
5:55 AM 66.2 °F 64.4 °F 94% 30.08 in - North - - N/A Rain Light Rain
6:15 AM 66.2 °F 64.4 °F 94% 30.08 in - North - - N/A Rain Light Rain
6:35 AM 66.2 °F 64.4 °F 94% 30.08 in - North - - N/A Rain Light Rain
6:55 AM 66.2 °F 64.4 °F 94% 30.09 in - North - - N/A Rain Light Rain
7:15 AM 66.2 °F 64.4 °F 94% 30.09 in - North - - N/A Rain Light Rain
7:35 AM 66.2 °F 64.4 °F 94% 30.10 in - North - - N/A Rain Light Rain
7:55 AM 68.0 °F 66.2 °F 94% 30.10 in - North - - N/A Rain Light Rain
8:15 AM 68.0 °F 66.2 °F 94% 30.11 in - North - - N/A Rain Light Rain
8:35 AM 69.8 °F 66.2 °F 88% 30.11 in - North - - N/A Rain Light Rain
8:55 AM 71.6 °F 66.2 °F 83% 30.12 in - North - - N/A Rain Light Rain
9:15 AM 71.6 °F 66.2 °F 83% 30.12 in - North - - N/A Rain Light Rain
9:35 AM 69.8 °F 66.2 °F 88% 30.13 in - North - - N/A Rain Light Rain
9:55 AM 71.6 °F 66.2 °F 83% 30.14 in - North - - N/A Rain Light Rain
10:15 AM 73.4 °F 66.2 °F 78% 30.14 in - North - - N/A Rain Light Rain
10:35 AM 73.4 °F 66.2 °F 78% 30.14 in - North - - N/A   Clear
10:55 AM 75.2 °F 66.2 °F 73% 30.15 in - North - - N/A   Clear
11:15 AM 73.4 °F 66.2 °F 78% 30.14 in - North - - N/A   Clear
11:35 AM 75.2 °F 66.2 °F 73% 30.14 in - North - - N/A   Clear
11:55 AM 73.4 °F 66.2 °F 78% 30.14 in - North - - N/A   Clear
12:15 PM 73.4 °F 66.2 °F 78% 30.13 in - North - - N/A   Clear
12:35 PM 75.2 °F 66.2 °F 73% 30.13 in - North - - N/A   Clear
12:55 PM 75.2 °F 66.2 °F 73% 30.13 in - North - - N/A   Clear
1:15 PM 75.2 °F 66.2 °F 73% 30.12 in - North - - N/A   Clear
1:35 PM 75.2 °F 66.2 °F 73% 30.11 in - North - - N/A   Clear
1:55 PM 75.2 °F 66.2 °F 73% 30.11 in - North - - N/A   Clear
2:15 PM 75.2 °F 66.2 °F 73% 30.11 in - North - - N/A   Clear
2:35 PM 75.2 °F 66.2 °F 73% 30.10 in - North - - N/A   Clear
2:55 PM 75.2 °F 66.2 °F 73% 30.10 in - North - - N/A   Clear
3:15 PM 75.2 °F 66.2 °F 73% 30.09 in - North - - N/A   Clear
3:35 PM 75.2 °F 66.2 °F 73% 30.09 in - North - - N/A   Clear
3:55 PM 77.0 °F 66.2 °F 69% 30.08 in - North - - N/A   Clear
4:15 PM 75.2 °F 66.2 °F 73% 30.07 in - North - - N/A   Clear
4:35 PM 75.2 °F 66.2 °F 73% 30.07 in - North - - N/A   Clear
4:55 PM 75.2 °F 66.2 °F 73% 30.07 in - North - - N/A   Clear
5:15 PM 75.2 °F 66.2 °F 73% 30.07 in - North - - N/A   Clear
5:35 PM 75.2 °F 66.2 °F 73% 30.07 in - North - - N/A   Partly Cloudy
5:55 PM 73.4 °F 66.2 °F 78% 30.07 in - North - - N/A   Partly Cloudy
6:15 PM 73.4 °F 66.2 °F 78% 30.07 in - North - - N/A   Clear
6:35 PM 71.6 °F 66.2 °F 83% 30.07 in - North - - N/A   Clear
6:55 PM 71.6 °F 66.2 °F 83% 30.06 in - North - - N/A   Clear
7:15 PM 71.6 °F 66.2 °F 83% 30.07 in - North - - N/A   Clear
7:35 PM 71.6 °F 66.2 °F 83% 30.07 in - North - - N/A   Clear
7:55 PM 69.8 °F 66.2 °F 88% 30.07 in - North - - N/A   Unknown
8:15 PM - - N/A% 30.07 in - North - - N/A   Unknown
8:35 PM 69.8 °F 66.2 °F 88% 30.07 in - North - - N/A   Unknown
8:55 PM 69.8 °F 66.2 °F 88% 30.08 in - North - - N/A   Unknown
9:15 PM 69.8 °F 66.2 °F 88% 30.08 in - North - - N/A   Unknown
9:35 PM 69.8 °F 66.2 °F 88% 30.09 in - North - - N/A   Unknown
9:55 PM 69.8 °F 66.2 °F 88% 30.09 in - North - - N/A   Unknown
10:15 PM 69.8 °F 66.2 °F 88% 30.09 in - North - - N/A   Unknown
10:35 PM 69.8 °F 66.2 °F 88% 30.09 in - North - - N/A   Unknown
10:55 PM 69.8 °F 66.2 °F 88% 30.09 in - North - - N/A   Unknown
11:15 PM 69.8 °F 66.2 °F 88% 30.09 in - North - - N/A   Unknown
11:35 PM 69.8 °F 66.2 °F 88% 30.09 in - North - - N/A   Unknown
11:55 PM - - N/A% 30.08 in - North - - N/A   Unknown